Simultaneous Nadir Overpasses (SNOs) Predictions

Prediction of SNOs between GOES-16 and AQUA Satellite Orbit:

Table of predicted SNOs for the next 14.0 days since TLE Epoch: 7/16/2022
Index Date Time (GOES-16) GOES-16 Lat,Lon AQUA Lat,Lon Distance(km) Time Diff (sec)
1 07/16/2022 06:50:45 0.04, -75.20 0.51, -77.48 259.25 80
2 07/18/2022 06:35:28 0.04, -75.21 -0.12, -74.41 90.93 80
3 07/18/2022 18:56:46 -0.04, -75.21 -0.97, -79.57 495.59 80
4 07/20/2022 06:22:51 0.04, -75.23 -0.77, -71.34 442.04 80
5 07/20/2022 18:44:09 -0.03, -75.23 -0.31, -76.50 144.27 80
6 07/22/2022 18:34:12 -0.03, -75.26 0.36, -73.43 207.56 80
7 07/23/2022 06:55:21 0.03, -75.27 0.70, -78.57 374.43 80
8 07/25/2022 06:42:44 -0.02, -75.30 0.01, -75.50 23.13 80
9 07/27/2022 06:27:26 -0.02, -75.33 -0.63, -72.43 329.91 80
10 07/27/2022 18:48:43 0.02, -75.34 -0.49, -77.58 256.13 80
11 07/29/2022 18:38:45 0.01, -75.38 0.18, -74.51 97.89 80
